Auburn, CA

4:30 AM PST on December 07, 2019 (GMT -0800)
Auburn Municipal

Weather History for KAUN - October, 2019

Change the Weather History Date:

Saturday, October 5, 2019

  Actual Average Record
Temperature  
Mean Temperature 62 °F -  
Max Temperature 75 °F 80 °F 98 °F (1980)
Min Temperature 48 °F 54 °F 43 °F (1954)
Degree Days  
Heating Degree Days 4    
Growing Degree Days 12 (Base 50)    
Moisture  
Dew Point 40 °F    
Average Humidity 48    
Maximum Humidity 82    
Minimum Humidity 27    
Precipitation  
Precipitation 0.00 in - - ()
Sea Level Pressure  
Sea Level Pressure 30.10 in    
Wind  
Wind Speed 1 mph ()    
Max Wind Speed 8 mph    
Max Gust Speed -    
Visibility 10.0 miles    
Events      
Averages and records for this station are not official NWS values.
T = Trace of Precipitation, MM = Missing Value Source: Averaged Metar Reports

Daily Weather History Graph

Daily Weather History Graph

Search for Another Location

Airport or City:

Astronomy

Oct. 05, 2019 Rise Set
Actual Time 7:03 AM PDT 6:40 PM PDT
Civil Twilight 6:37 AM PDT 7:07 PM PDT
Nautical Twilight 6:06 AM PDT 7:38 PM PDT
Astronomical Twilight 5:35 AM PDT 8:09 PM PDT
Moon 2:31 PM PDT (10/5) No Moon Set
Length of Visible Light 12h 30m
Length of Day
11h 36m
Waxing Crescent, 51% of the Moon is Illuminated
Oct 5
Waxing Crescent
Oct 13
Full
Oct 21
Last Quarter
Oct 27
New
Nov 4
First Quarter

Hourly Weather History & Observations

Time (PDT) Temp. Dew Point Humidity Pressure Visibility Wind Dir Wind Speed Gust Speed Precip Events Conditions
12:15 AM 55.4 °F 42.8 °F 63% 30.13 in 10.0 mi Calm Calm - N/A   Clear
12:35 AM 53.6 °F 42.8 °F 67% 30.13 in 10.0 mi Calm Calm - N/A   Clear
12:55 AM 48.2 °F 42.8 °F 82% 30.13 in 10.0 mi Calm Calm - N/A   Clear
1:15 AM 51.8 °F 42.8 °F 71% 30.12 in 10.0 mi Calm Calm - N/A   Clear
1:35 AM 51.8 °F 42.8 °F 71% 30.12 in 10.0 mi Calm Calm - N/A   Clear
1:55 AM 51.8 °F 42.8 °F 71% 30.12 in 10.0 mi Calm Calm - N/A   Clear
2:15 AM 53.6 °F 42.8 °F 67% 30.12 in 10.0 mi Calm Calm - N/A   Clear
2:35 AM 53.6 °F 42.8 °F 67% 30.12 in 10.0 mi East 5.8 mph - N/A   Clear
2:55 AM 53.6 °F 41.0 °F 62% 30.11 in 10.0 mi Calm Calm - N/A   Clear
3:15 AM 53.6 °F 41.0 °F 62% 30.11 in 10.0 mi Calm Calm - N/A   Clear
3:35 AM 53.6 °F 41.0 °F 62% 30.11 in 10.0 mi East 4.6 mph - N/A   Clear
3:55 AM 53.6 °F 41.0 °F 62% 30.11 in 10.0 mi Calm Calm - N/A   Clear
4:15 AM 51.8 °F 39.2 °F 62% 30.10 in 10.0 mi East 6.9 mph - N/A   Clear
4:35 AM 51.8 °F 39.2 °F 62% 30.10 in 10.0 mi Calm Calm - N/A   Clear
4:55 AM 51.8 °F 39.2 °F 62% 30.11 in 10.0 mi Calm Calm - N/A   Clear
5:15 AM 50.0 °F 39.2 °F 66% 30.11 in 10.0 mi Calm Calm - N/A   Clear
5:35 AM 50.0 °F 39.2 °F 66% 30.12 in 10.0 mi Calm Calm - N/A   Clear
5:55 AM 50.0 °F 39.2 °F 66% 30.12 in 10.0 mi Calm Calm - N/A   Clear
6:15 AM 50.0 °F 39.2 °F 66% 30.12 in 10.0 mi Calm Calm - N/A   Clear
6:35 AM 51.8 °F 37.4 °F 58% 30.12 in 10.0 mi East 5.8 mph - N/A   Clear
6:55 AM 51.8 °F 37.4 °F 58% 30.13 in 10.0 mi Calm Calm - N/A   Clear
7:15 AM 51.8 °F 37.4 °F 58% 30.13 in 10.0 mi East 6.9 mph - N/A   Clear
7:35 AM 51.8 °F 37.4 °F 58% 30.13 in 10.0 mi East 8.1 mph - N/A   Clear
7:55 AM 53.6 °F 37.4 °F 54% 30.13 in 10.0 mi Calm Calm - N/A   Clear
8:15 AM 55.4 °F 37.4 °F 51% 30.13 in 10.0 mi East 8.1 mph - N/A   Clear
8:35 AM 57.2 °F 37.4 °F 48% 30.14 in 10.0 mi Calm Calm - N/A   Clear
8:55 AM 60.8 °F 37.4 °F 42% 30.14 in 10.0 mi Calm Calm - N/A   Clear
9:15 AM 62.6 °F 37.4 °F 39% 30.14 in 10.0 mi Calm Calm - N/A   Clear
9:35 AM 64.4 °F 37.4 °F 37% 30.14 in 10.0 mi Calm Calm - N/A   Clear
9:55 AM 66.2 °F 37.4 °F 35% 30.15 in 10.0 mi Calm Calm - N/A   Clear
10:10 AM 68.0 °F 35.6 °F 30% 30.16 in 10.0 mi Calm Calm - N/A   Clear
10:35 AM 68.0 °F 33.8 °F 28% 30.15 in 10.0 mi Calm Calm - N/A   Clear
10:55 AM 69.8 °F 37.4 °F 31% 30.15 in 10.0 mi Calm Calm - N/A   Clear
11:15 AM 68.0 °F 42.8 °F 40% 30.15 in 10.0 mi Calm Calm - N/A   Clear
11:35 AM 68.0 °F 42.8 °F 40% 30.15 in 10.0 mi Calm Calm - N/A   Clear
11:55 AM 69.8 °F 42.8 °F 38% 30.15 in 10.0 mi Calm Calm - N/A   Clear
12:15 PM 69.8 °F 42.8 °F 38% 30.15 in 10.0 mi Calm Calm - N/A   Clear
12:35 PM 69.8 °F 41.0 °F 35% 30.14 in 10.0 mi Calm Calm - N/A   Clear
12:55 PM 71.6 °F 42.8 °F 35% 30.14 in 10.0 mi Calm Calm - N/A   Clear
1:15 PM 71.6 °F 41.0 °F 33% 30.13 in 10.0 mi Calm Calm - N/A   Clear
1:35 PM 73.4 °F 41.0 °F 31% 30.12 in 10.0 mi Calm Calm - N/A   Clear
1:55 PM 73.4 °F 41.0 °F 31% 30.12 in 10.0 mi Calm Calm - N/A   Clear
2:15 PM 75.2 °F 41.0 °F 29% 30.11 in 10.0 mi Calm Calm - N/A   Clear
2:35 PM 73.4 °F 41.0 °F 31% 30.10 in 10.0 mi West 4.6 mph - N/A   Clear
2:55 PM 75.2 °F 41.0 °F 29% 30.10 in 10.0 mi Calm Calm - N/A   Clear
3:15 PM 75.2 °F 41.0 °F 29% 30.09 in 10.0 mi West 4.6 mph - N/A   Clear
3:35 PM 75.2 °F 41.0 °F 29% 30.09 in 10.0 mi Calm Calm - N/A   Clear
3:55 PM 75.2 °F 39.2 °F 27% 30.09 in 10.0 mi Calm Calm - N/A   Clear
4:15 PM 75.2 °F 41.0 °F 29% 30.08 in 10.0 mi Calm Calm - N/A   Clear
4:35 PM 75.2 °F 39.2 °F 27% 30.08 in 10.0 mi West 4.6 mph - N/A   Clear
4:55 PM 75.2 °F 39.2 °F 27% 30.08 in 10.0 mi Calm Calm - N/A   Clear
5:15 PM 73.4 °F 37.4 °F 27% 30.07 in 10.0 mi Calm Calm - N/A   Clear
5:35 PM 73.4 °F 37.4 °F 27% 30.07 in 10.0 mi Calm Calm - N/A   Clear
5:55 PM 71.6 °F 37.4 °F 29% 30.07 in 10.0 mi Calm Calm - N/A   Clear
6:15 PM 71.6 °F 37.4 °F 29% 30.06 in 10.0 mi Calm Calm - N/A   Clear
6:35 PM 68.0 °F 37.4 °F 33% 30.06 in 10.0 mi Calm Calm - N/A   Clear
6:55 PM 68.0 °F 37.4 °F 33% 30.06 in 10.0 mi Calm Calm - N/A   Clear
7:15 PM 64.4 °F 37.4 °F 37% 30.06 in 10.0 mi Calm Calm - N/A   Clear
7:35 PM 64.4 °F 39.2 °F 40% 30.06 in 10.0 mi Calm Calm - N/A   Clear
7:55 PM 59.0 °F 41.0 °F 51% 30.06 in 10.0 mi Calm Calm - N/A   Clear
8:15 PM 55.4 °F 42.8 °F 63% 30.06 in 10.0 mi Calm Calm - N/A   Clear
8:35 PM 57.2 °F 42.8 °F 59% 30.06 in 10.0 mi Calm Calm - N/A   Clear
8:55 PM 57.2 °F 42.8 °F 59% 30.06 in 10.0 mi Calm Calm - N/A   Clear
9:15 PM 57.2 °F 41.0 °F 55% 30.06 in 10.0 mi Calm Calm - N/A   Clear
9:35 PM 57.2 °F 41.0 °F 55% 30.06 in 10.0 mi Calm Calm - N/A   Clear
9:55 PM 57.2 °F 41.0 °F 55% 30.06 in 10.0 mi Calm Calm - N/A   Clear
10:15 PM 60.8 °F 41.0 °F 48% 30.06 in 10.0 mi Calm Calm - N/A   Clear
10:35 PM 60.8 °F 42.8 °F 52% 30.06 in 10.0 mi East 5.8 mph - N/A   Clear
10:55 PM 60.8 °F 42.8 °F 52% 30.05 in 10.0 mi East 3.5 mph - N/A   Clear
11:15 PM 60.8 °F 42.8 °F 52% 30.05 in 10.0 mi East 6.9 mph - N/A   Clear
11:35 PM 60.8 °F 42.8 °F 52% 30.05 in 10.0 mi Calm Calm - N/A   Clear
11:55 PM 59.0 °F 42.8 °F 55% 30.05 in 10.0 mi Calm Calm - N/A   Clear